Rome Ciampino, Italy

8:51 AM CEST on September 23, 2017 (GMT +0200)
Ciampino

Weather History for LIRA - January, 2014

Change the Weather History Date:

Wednesday, January 22, 2014

  Actual Average Record
Temperature  
Mean Temperature 48 °F -  
Max Temperature 52 °F 54 °F 62 °F (2007)
Min Temperature 44 °F 38 °F 32 °F (2000)
Degree Days  
Heating Degree Days 17    
Moisture  
Dew Point 46 °F    
Average Humidity 90    
Maximum Humidity 94    
Minimum Humidity 77    
Precipitation  
Precipitation 0.12 in 0.13 in - ()
Sea Level Pressure  
Sea Level Pressure 29.88 in    
Wind  
Wind Speed 3 mph ()    
Max Wind Speed 9 mph    
Max Gust Speed -    
Visibility 6.1 miles    
Events Rain    
Averages and records for this station are not official NWS values.
T = Trace of Precipitation, MM = Missing Value Source: Averaged Metar Reports

Daily Weather History Graph

Daily Weather History Graph

Search for Another Location

Airport or City:

Trip Planner

Search our weather history database for the weather conditions in past years. The results will help you decide how hot, cold, wet, or windy it might be!

Date:

Astronomy

Jan. 22, 2014 Rise Set
Actual Time 7:30 AM CET 5:12 PM CET
Civil Twilight 7:00 AM CET 5:42 PM CET
Nautical Twilight 6:26 AM CET 6:16 PM CET
Astronomical Twilight 5:53 AM CET 6:49 PM CET
Moon 11:33 PM CET (1/22) 10:17 AM CET (1/22)
Length of Visible Light 10h 41m
Length of Day
9h 41m
Waning Gibbous, 68% of the Moon is Illuminated
Jan 22
Waning Gibbous
Jan 24
Last Quarter
Jan 30
New
Feb 6
First Quarter
Feb 15
Full

Hourly Weather History & Observations

Time (CET) Temp. Windchill Dew Point Humidity Pressure Visibility Wind Dir Wind Speed Gust Speed Precip Events Conditions
12:15 AM 50.0 °F - 46.4 °F 87% 29.77 in 6.2 mi SSE 3.5 mph - N/A Rain Light Rain
12:45 AM 48.2 °F - 46.4 °F 93% 29.77 in 6.2 mi SSE 3.5 mph - N/A   Scattered Clouds
1:00 AM 49 °F - 46 °F 87% 29.80 in 6 mi SSE 3.5 mph - - Rain Light Rain
1:15 AM 48.2 °F - 46.4 °F 93% 29.80 in 6.2 mi South 1.2 mph - N/A   Scattered Clouds
1:45 AM 50.0 °F - 48.2 °F 94% 29.80 in 6.2 mi Calm Calm - N/A   Scattered Clouds
2:15 AM 48.2 °F - 46.4 °F 93% 29.80 in 6.2 mi Calm Calm - N/A   Scattered Clouds
2:45 AM 48.2 °F - 46.4 °F 93% 29.80 in 6.2 mi Calm Calm - N/A   Scattered Clouds
3:15 AM 48.2 °F - 46.4 °F 93% 29.80 in 6.2 mi Calm Calm - N/A   Scattered Clouds
3:45 AM 48.2 °F - 44.6 °F 87% 29.80 in 6.2 mi Calm Calm - N/A   Scattered Clouds
4:00 AM 47 °F - 45 °F 89% 29.82 in 6 mi Calm Calm - -   Partly Cloudy
4:15 AM 46.4 °F - 44.6 °F 93% 29.80 in 6.2 mi Calm Calm - N/A   Scattered Clouds
4:45 AM 46.4 °F - 42.8 °F 87% 29.80 in 6.2 mi Calm Calm - N/A   Scattered Clouds
5:15 AM 44.6 °F - 42.8 °F 93% 29.80 in 6.2 mi Calm Calm - N/A   Scattered Clouds
5:45 AM 46.4 °F - 42.8 °F 87% 29.80 in 6.2 mi Calm Calm - N/A   Scattered Clouds
6:15 AM 46.4 °F - 44.6 °F 93% 29.83 in 6.2 mi ESE 1.2 mph - N/A   Scattered Clouds
6:45 AM 46.4 °F 44.3 °F 44.6 °F 93% 29.83 in 6.2 mi East 4.6 mph - N/A   Scattered Clouds
7:00 AM 46 °F - 44 °F 92% 29.85 in 6 mi East 4.6 mph - -   Partly Cloudy
7:15 AM 46.4 °F 44.3 °F 44.6 °F 93% 29.83 in 6.2 mi East 4.6 mph - N/A   Scattered Clouds
7:45 AM 46.4 °F - 44.6 °F 93% 29.83 in 6.2 mi WSW 2.3 mph - N/A   Scattered Clouds
8:15 AM 46.4 °F - 44.6 °F 93% 29.83 in 6.2 mi Calm Calm - N/A   Scattered Clouds
8:45 AM 48.2 °F - 46.4 °F 93% 29.86 in 6.2 mi South 2.3 mph - N/A   Scattered Clouds
9:15 AM 50.0 °F - 48.2 °F 94% 29.86 in 6.2 mi Calm Calm - N/A   Scattered Clouds
9:45 AM 50.0 °F - 48.2 °F 94% 29.86 in 6.2 mi SE 1.2 mph - N/A   Scattered Clouds
10:00 AM 50 °F - 49 °F 93% 29.88 in 6 mi SE 1.2 mph - -   Mostly Cloudy
10:15 AM 51.8 °F - 50.0 °F 94% 29.86 in 6.2 mi South 5.8 mph - N/A   Scattered Clouds
10:45 AM 50.0 °F - 48.2 °F 94% 29.89 in 6.2 mi South 9.2 mph - N/A Rain Light Rain
11:15 AM 50.0 °F - 48.2 °F 94% 29.89 in 6.2 mi South 6.9 mph - N/A Rain Light Rain
11:45 AM 50.0 °F - 48.2 °F 94% 29.89 in 6.2 mi SW 3.5 mph - N/A Rain Light Rain
12:15 PM 50.0 °F - 48.2 °F 94% 29.89 in 6.2 mi SW 2.3 mph - N/A Rain Light Rain
12:45 PM 50.0 °F - 48.2 °F 94% 29.89 in 4.3 mi South 5.8 mph - N/A Rain Light Rain
1:00 PM 50 °F - 48 °F 90% 29.92 in 4 mi South 5.8 mph - - Rain Light Rain
1:15 PM 50.0 °F - 48.2 °F 94% 29.89 in 6.2 mi SSE 5.8 mph - N/A Rain Light Rain
1:45 PM 51.8 °F - 50.0 °F 94% 29.89 in 6.2 mi South 6.9 mph - N/A Rain Light Rain
2:15 PM 51.8 °F - 50.0 °F 94% 29.89 in 6.2 mi South 6.9 mph - N/A   Mostly Cloudy
2:45 PM 51.8 °F - 50.0 °F 94% 29.89 in 6.2 mi South 6.9 mph - N/A   Mostly Cloudy
3:15 PM 51.8 °F - 48.2 °F 88% 29.89 in 6.2 mi SSW 4.6 mph - N/A   Mostly Cloudy
3:45 PM 51.8 °F - 48.2 °F 88% 29.89 in 6.2 mi South 5.8 mph - N/A   Mostly Cloudy
4:00 PM 52 °F - 48 °F 81% 29.91 in 7 mi South 5.8 mph - -   Partly Cloudy
4:15 PM 51.8 °F - 46.4 °F 82% 29.89 in 6.2 mi South 5.8 mph - N/A   Scattered Clouds
4:45 PM 51.8 °F - 46.4 °F 82% 29.89 in 6.2 mi South 4.6 mph - N/A   Scattered Clouds
5:15 PM 51.8 °F - 46.4 °F 82% 29.92 in 6.2 mi South 5.8 mph - N/A   Scattered Clouds
5:45 PM 50.0 °F - 46.4 °F 87% 29.92 in 6.2 mi South 4.6 mph - N/A   Scattered Clouds
6:15 PM 50.0 °F - 46.4 °F 87% 29.95 in 6.2 mi SW 2.3 mph - N/A Rain Light Rain
6:45 PM 50.0 °F - 46.4 °F 87% 29.95 in 6.2 mi South 3.5 mph - N/A Rain Light Rain
7:00 PM 49 °F - 47 °F 88% 29.97 in 6 mi South 3.5 mph - - Rain Light Rain
7:15 PM 48.2 °F - 46.4 °F 93% 29.95 in 6.2 mi SSE 2.3 mph - N/A Rain Light Rain
7:45 PM 48.2 °F - 46.4 °F 93% 29.95 in 6.2 mi ESE 3.5 mph - N/A Rain Light Rain
8:15 PM 48.2 °F - 46.4 °F 93% 29.95 in 6.2 mi ESE 3.5 mph - N/A Rain Light Rain
8:45 PM 48.2 °F - 46.4 °F 93% 29.95 in 6.2 mi SE 3.5 mph - N/A Rain Light Rain
9:15 PM 48.2 °F - 44.6 °F 87% 29.98 in 6.2 mi SSE 5.8 mph - N/A Rain Light Rain
9:45 PM 48.2 °F - 42.8 °F 82% 29.98 in 6.2 mi SSE 6.9 mph - N/A   Mostly Cloudy
10:00 PM 48 °F - 43 °F 77% 29.99 in 6 mi SSE 6.9 mph - - Rain Light Rain
10:15 PM 46.4 °F 44.3 °F 41.0 °F 81% 29.98 in 6.2 mi SSE 4.6 mph - N/A   Scattered Clouds
10:45 PM 46.4 °F 42.9 °F 42.8 °F 87% 29.98 in 6.2 mi SE 6.9 mph - N/A   Scattered Clouds
11:15 PM 44.6 °F 40.7 °F 41.0 °F 87% 29.98 in 6.2 mi SE 6.9 mph - N/A   Scattered Clouds
11:45 PM 44.6 °F 41.4 °F 41.0 °F 87% 29.98 in 6.2 mi SE 5.8 mph - N/A   Scattered Clouds